McAllen, TX

11:30 PM CDT on July 20, 2017 (GMT -0500)
McAllen Miller International

Weather History for KMFE - April, 2014

Change the Weather History Date:

Friday, April 11, 2014

  Actual Average Record
Temperature  
Mean Temperature 77 °F 76 °F  
Max Temperature 89 °F 87 °F 105 °F (1965)
Min Temperature 65 °F 65 °F 47 °F (1989)
Degree Days  
Heating Degree Days 0 0  
Month to date heating degree days 0 3  
Since 1 July heating degree days 874 574  
Cooling Degree Days 12 11  
Month to date cooling degree days 113 115  
Year to date cooling degree days 377 492  
Growing Degree Days 26 (Base 50)    
Moisture  
Dew Point 61 °F    
Average Humidity 64    
Maximum Humidity 93    
Minimum Humidity 34    
Precipitation  
Precipitation 0.00 in 0.04 in 0.72 in (1978)
Month to date precipitation 0.03 0.35  
Year to date precipitation 2.08 3.54  
Sea Level Pressure  
Sea Level Pressure 29.96 in    
Wind  
Wind Speed 16 mph (SSE)    
Max Wind Speed 25 mph    
Max Gust Speed 31 mph    
Visibility 10 miles    
Events      
T = Trace of Precipitation, MM = Missing Value Source: NWS Daily Summary

Daily Weather History Graph

Daily Weather History Graph

Search for Another Location

Airport or City:

Trip Planner

Search our weather history database for the weather conditions in past years. The results will help you decide how hot, cold, wet, or windy it might be!

Date:

Astronomy

Apr. 11, 2014 Rise Set
Actual Time 7:13 AM CDT 7:54 PM CDT
Civil Twilight 6:50 AM CDT 8:18 PM CDT
Nautical Twilight 6:22 AM CDT 8:45 PM CDT
Astronomical Twilight 5:54 AM CDT 9:13 PM CDT
Moon 4:54 PM CDT (4/11) 4:49 AM CDT (4/11)
Length of Visible Light 13h 28m
Length of Day
12h 41m
Waxing Gibbous, 87% of the Moon is Illuminated
Apr 11
Waxing Gibbous
Apr 15
Full
Apr 22
Last Quarter
Apr 29
New
May 6
First Quarter

Hourly Weather History & Observations

Time (CDT) Temp. Heat Index Dew Point Humidity Pressure Visibility Wind Dir Wind Speed Gust Speed Precip Events Conditions
12:53 AM 68.0 °F - 61.0 °F 78% 30.01 in 10.0 mi SSE 12.7 mph - N/A   Clear
1:53 AM 69.1 °F - 61.0 °F 75% 29.99 in 10.0 mi SSE 17.3 mph - N/A   Clear
2:53 AM 68.0 °F - 61.0 °F 78% 29.98 in 10.0 mi SSE 15.0 mph 24.2 mph N/A   Clear
3:53 AM 66.9 °F - 61.0 °F 81% 29.96 in 10.0 mi SSE 13.8 mph 19.6 mph N/A   Clear
4:53 AM 66.0 °F - 62.1 °F 87% 29.95 in 10.0 mi SSE 13.8 mph - N/A   Clear
5:53 AM 66.0 °F - 62.1 °F 87% 29.96 in 10.0 mi SSE 12.7 mph - N/A   Clear
6:53 AM 64.9 °F - 61.0 °F 87% 29.96 in 10.0 mi SE 11.5 mph - N/A   Clear
7:53 AM 64.9 °F - 62.1 °F 90% 29.98 in 10.0 mi SSE 10.4 mph - N/A   Clear
8:53 AM 69.1 °F - 62.1 °F 78% 29.99 in 10.0 mi SSE 13.8 mph - N/A   Clear
9:53 AM 73.9 °F - 62.1 °F 66% 30.00 in 10.0 mi South 16.1 mph 24.2 mph N/A   Clear
10:53 AM 78.1 °F - 60.1 °F 54% 30.01 in 10.0 mi SSE 20.7 mph 24.2 mph N/A   Clear
11:53 AM 81.0 °F 81.3 °F 59.0 °F 47% 30.01 in 10.0 mi SSE 16.1 mph - N/A   Clear
12:53 PM 84.9 °F 84.4 °F 59.0 °F 41% 29.98 in 10.0 mi SE 19.6 mph 26.5 mph N/A   Clear
1:53 PM 87.1 °F 85.7 °F 55.9 °F 35% 29.96 in 10.0 mi SE 20.7 mph 26.5 mph N/A   Clear
2:53 PM 87.1 °F 87.0 °F 61.0 °F 41% 29.94 in 10.0 mi SSE 19.6 mph 27.6 mph N/A   Clear
3:53 PM 87.1 °F 87.0 °F 61.0 °F 41% 29.91 in 10.0 mi SE 16.1 mph 27.6 mph N/A   Clear
4:53 PM 86.0 °F 85.4 °F 59.0 °F 40% 29.89 in 10.0 mi SE 18.4 mph - N/A   Clear
5:53 PM 84.0 °F 84.0 °F 60.1 °F 44% 29.89 in 10.0 mi SE 20.7 mph 27.6 mph N/A   Clear
6:53 PM 79.0 °F - 62.1 °F 56% 29.91 in 10.0 mi SE 20.7 mph 26.5 mph N/A   Clear
7:53 PM 75.9 °F - 62.1 °F 62% 29.93 in 10.0 mi SE 18.4 mph 24.2 mph N/A   Clear
8:53 PM 73.0 °F - 62.1 °F 68% 29.95 in 10.0 mi SE 18.4 mph - N/A   Clear
9:53 PM 72.0 °F - 64.0 °F 76% 29.97 in 10.0 mi SE 12.7 mph - N/A   Clear
10:53 PM 70.0 °F - 64.9 °F 84% 29.98 in 10.0 mi SE 12.7 mph - N/A   Clear
11:53 PM 70.0 °F - 66.0 °F 87% 29.97 in 10.0 mi SE 13.8 mph - N/A   Clear